UAE1KN OMDB-FALE

Flight info

Callsign UAE1KN
Flight time N/A
Altitude 32000
Route ANVIX R401 GIDIS G783 UKRAG/N0493F310 L710 ITETA/N0495F330 L710 KUKDI/N0495F320 B400 VEDET UL437 EGTUL/N0495F340 UL437 ELAVA DCT BONAP UM310 NETAN/N0485F360 UM310 VMA UB529 ITMIL ITMIL1B
Aircraft B77W/H-SDE1E2E3FGHIJ2J3J4J5M1RWXY/LB1D1

Departure

Time 2026-04-20 00:19
Airport Dubai International Airport (OMDB)

Arrival

Time N/A
Airport King Shaka International Airport (FALE)
Time Latitude Longitude Altitude Speed Heading
2026-04-19 23:27 25.24151 55.37321 26 ft 0 kts 31°
2026-04-20 00:10 25.24149 55.37320 26 ft 2 kts 31°
2026-04-20 00:11 25.24127 55.37305 28 ft 4 kts 31°
2026-04-20 00:11 25.24104 55.37289 31 ft 4 kts 31°
2026-04-20 00:11 25.24085 55.37276 31 ft 4 kts 49°
2026-04-20 00:11 25.24079 55.37255 31 ft 4 kts 117°
2026-04-20 00:12 25.24092 55.37232 31 ft 1 kts 122°
2026-04-20 00:12 25.24092 55.37231 31 ft 0 kts 122°
2026-04-20 00:14 25.24089 55.37237 31 ft 5 kts 122°
2026-04-20 00:15 25.24056 55.37295 29 ft 10 kts 122°
2026-04-20 00:15 25.24018 55.37365 28 ft 11 kts 121°
2026-04-20 00:15 25.23977 55.37446 30 ft 13 kts 109°
2026-04-20 00:15 25.23979 55.37546 29 ft 14 kts 69°
2026-04-20 00:16 25.24047 55.37624 29 ft 15 kts 34°
2026-04-20 00:16 25.24135 55.37683 30 ft 15 kts 31°
2026-04-20 00:16 25.24223 55.37743 26 ft 15 kts 31°
2026-04-20 00:16 25.24312 55.37802 27 ft 15 kts 32°
2026-04-20 00:17 25.24397 55.37866 31 ft 15 kts 34°
2026-04-20 00:17 25.24482 55.37930 35 ft 15 kts 35°
2026-04-20 00:17 25.24572 55.37999 30 ft 17 kts 34°
2026-04-20 00:17 25.24672 55.38069 32 ft 17 kts 31°
2026-04-20 00:18 25.24760 55.38103 35 ft 12 kts 337°
2026-04-20 00:18 25.24788 55.38062 35 ft 0 kts 301°
2026-04-20 00:18 25.24802 55.38036 35 ft 19 kts 301°
2026-04-20 00:18 25.25008 55.37664 35 ft 93 kts 301°
2026-04-20 00:19 25.25466 55.36838 34 ft 157 kts 301°
2026-04-20 00:19 25.26115 55.35644 112 ft 196 kts 301°
2026-04-20 00:19 25.26828 55.34366 707 ft 196 kts 301°
2026-04-20 00:19 25.27553 55.33078 1304 ft 197 kts 301°
2026-04-20 00:20 25.28272 55.31802 1909 ft 195 kts 301°
2026-04-20 00:20 25.28989 55.30515 2345 ft 197 kts 298°
2026-04-20 00:20 25.29263 55.29062 2678 ft 199 kts 259°
2026-04-20 00:20 25.28746 55.27644 3041 ft 201 kts 246°
2026-04-20 00:21 25.28148 55.26237 3428 ft 204 kts 248°
2026-04-20 00:21 25.27554 55.24807 3860 ft 206 kts 248°
2026-04-20 00:21 25.26950 55.23367 4284 ft 208 kts 248°
2026-04-20 00:21 25.26344 55.21931 4690 ft 210 kts 248°
2026-04-20 00:22 25.25702 55.20405 4925 ft 226 kts 248°
2026-04-20 00:22 25.25026 55.18805 5204 ft 238 kts 248°
2026-04-20 00:22 25.24066 55.17280 5467 ft 252 kts 218°
2026-04-20 00:22 25.22409 55.16578 5764 ft 265 kts 181°
2026-04-20 00:23 25.20556 55.16712 6126 ft 270 kts 173°
2026-04-20 00:23 25.18761 55.17329 6447 ft 275 kts 143°
2026-04-20 00:23 25.17495 55.18927 6679 ft 283 kts 114°
2026-04-20 00:23 25.16624 55.20918 7006 ft 293 kts 114°
2026-04-20 00:24 25.15686 55.22937 7546 ft 298 kts 115°
2026-04-20 00:24 25.14716 55.24971 8153 ft 301 kts 115°
2026-04-20 00:24 25.13734 55.27019 8764 ft 304 kts 115°
2026-04-20 00:24 25.12740 55.29092 9361 ft 307 kts 115°
2026-04-20 00:25 25.11731 55.31191 9926 ft 312 kts 115°
2026-04-20 00:25 25.10713 55.33310 10508 ft 314 kts 115°
2026-04-20 00:25 25.09775 55.35484 11151 ft 314 kts 111°
2026-04-20 00:25 25.08885 55.37695 11831 ft 316 kts 111°
2026-04-20 00:26 25.07984 55.39917 12553 ft 318 kts 111°
2026-04-20 00:26 25.07075 55.42152 13266 ft 322 kts 111°
2026-04-20 00:26 25.06175 55.44478 13608 ft 341 kts 110°
2026-04-20 00:26 25.05229 55.46967 13774 ft 363 kts 110°
2026-04-20 00:27 25.04221 55.49608 13931 ft 384 kts 111°
2026-04-20 00:27 25.03152 55.52389 14151 ft 402 kts 111°
2026-04-20 00:27 25.02042 55.55256 14632 ft 411 kts 111°
2026-04-20 00:27 25.00733 55.58091 15160 ft 419 kts 118°
2026-04-20 00:28 24.99197 55.60832 15812 ft 422 kts 121°
2026-04-20 00:28 24.97613 55.63571 16485 ft 425 kts 120°
2026-04-20 00:28 24.96058 55.66359 17117 ft 429 kts 119°
2026-04-20 00:28 24.94517 55.69193 17734 ft 433 kts 119°
2026-04-20 00:29 24.92888 55.72011 18308 ft 438 kts 123°
2026-04-20 00:29 24.91082 55.74736 18828 ft 443 kts 126°
2026-04-20 00:29 24.89210 55.77444 19372 ft 446 kts 126°
2026-04-20 00:29 24.87337 55.80184 19928 ft 449 kts 126°
2026-04-20 00:30 24.86105 55.82020 20276 ft 451 kts 126°
2026-04-20 00:30 24.83613 55.85774 20971 ft 456 kts 126°
2026-04-20 00:30 24.82364 55.87640 21315 ft 459 kts 126°
2026-04-20 00:30 24.80387 55.90389 21749 ft 459 kts 135°
2026-04-20 00:31 24.77794 55.92445 22043 ft 464 kts 156°
2026-04-20 00:31 24.74735 55.93565 22585 ft 463 kts 171°
2026-04-20 00:31 24.71537 55.93804 23187 ft 460 kts 184°
2026-04-20 00:31 24.68343 55.93602 23690 ft 461 kts 185°
2026-04-20 00:32 24.65122 55.93438 24077 ft 463 kts 184°
2026-04-20 00:32 24.61939 55.93002 24368 ft 465 kts 196°
2026-04-20 00:32 24.58902 55.91761 24683 ft 467 kts 208°
2026-04-20 00:32 24.56181 55.89851 25113 ft 465 kts 221°
2026-04-20 00:33 24.53806 55.87522 25501 ft 465 kts 224°
2026-04-20 00:33 24.51400 55.85119 25862 ft 469 kts 223°
2026-04-20 00:33 24.48965 55.82720 26260 ft 472 kts 223°
2026-04-20 00:33 24.46496 55.80321 26672 ft 474 kts 222°
2026-04-20 00:34 24.44012 55.77931 27075 ft 476 kts 222°
2026-04-20 00:34 24.41511 55.75535 27469 ft 479 kts 222°
2026-04-20 00:34 24.38992 55.73123 27837 ft 482 kts 222°
2026-04-20 00:34 24.36477 55.70713 28185 ft 484 kts 222°
2026-04-20 00:35 24.33953 55.68278 28531 ft 487 kts 222°
2026-04-20 00:35 24.31404 55.65814 28864 ft 489 kts 222°
2026-04-20 00:35 24.28802 55.63405 29172 ft 492 kts 217°
2026-04-20 00:35 24.25919 55.61372 29474 ft 494 kts 209°
2026-04-20 00:36 24.22814 55.59746 29875 ft 495 kts 202°
2026-04-20 00:36 24.19558 55.58541 30257 ft 495 kts 195°
2026-04-20 00:36 24.16225 55.57601 30566 ft 495 kts 195°
2026-04-20 00:36 24.12875 55.56671 30824 ft 497 kts 195°
2026-04-20 00:37 24.09524 55.55718 31108 ft 498 kts 196°
2026-04-20 00:37 24.06496 55.54834 31392 ft 499 kts 196°
2026-04-20 00:37 24.03199 55.53857 31676 ft 499 kts 197°
2026-04-20 00:37 23.99870 55.52868 31958 ft 500 kts 197°
2026-04-20 00:38 23.96531 55.51873 32226 ft 501 kts 197°
2026-04-20 00:38 23.93161 55.50869 32494 ft 502 kts 197°
2026-04-20 00:38 23.89791 55.49865 32785 ft 502 kts 197°
2026-04-20 00:38 23.86420 55.48863 33080 ft 502 kts 197°
2026-04-20 00:39 23.83174 55.47898 33347 ft 503 kts 197°
2026-04-20 00:39 23.80134 55.46993 33590 ft 503 kts 198°
2026-04-20 00:39 23.77072 55.46080 33788 ft 505 kts 198°
2026-04-20 00:40 23.71187 55.44324 33833 ft 509 kts 198°
2026-04-20 00:40 23.65341 55.42584 33861 ft 507 kts 198°
2026-04-20 00:41 23.60226 55.41063 33861 ft 506 kts 198°
2026-04-20 00:41 23.55345 55.39704 33792 ft 507 kts 192°
2026-04-20 00:42 23.50917 55.39331 33898 ft 507 kts 180°
2026-04-20 00:42 23.46838 55.39739 33841 ft 511 kts 170°
2026-04-20 00:43 23.42239 55.41115 33843 ft 513 kts 163°
2026-04-20 00:43 23.38307 55.42413 33884 ft 514 kts 165°
2026-04-20 00:44 23.35007 55.43421 33874 ft 517 kts 164°
2026-04-20 00:44 23.31232 55.44597 33689 ft 521 kts 165°
2026-04-20 00:45 23.27453 55.45803 33687 ft 520 kts 164°
2026-04-20 00:45 23.23849 55.46957 33810 ft 517 kts 165°
2026-04-20 00:45 23.22357 55.47433 33940 ft 514 kts 165°
2026-04-20 00:46 23.20794 55.47928 34037 ft 513 kts 165°
2026-04-20 00:46 23.17220 55.49063 33878 ft 520 kts 165°
2026-04-20 00:47 23.13994 55.50086 33967 ft 519 kts 165°
2026-04-20 00:47 23.10683 55.51131 33797 ft 524 kts 165°
2026-04-20 00:48 23.06779 55.52360 33854 ft 524 kts 165°
2026-04-20 00:48 23.02509 55.53704 33839 ft 524 kts 165°
2026-04-20 00:49 22.99013 55.54773 33789 ft 525 kts 165°
2026-04-20 00:49 22.95315 55.55898 33618 ft 527 kts 165°
2026-04-20 00:50 22.91790 55.56972 33788 ft 518 kts 165°
2026-04-20 00:50 22.89991 55.57520 33922 ft 516 kts 165°
2026-04-20 00:50 22.88450 55.57990 34038 ft 514 kts 165°
2026-04-20 00:50 22.86971 55.58445 34193 ft 510 kts 165°
2026-04-20 00:51 22.84241 55.59315 34181 ft 514 kts 165°
2026-04-20 00:51 22.82148 55.59962 34043 ft 520 kts 165°
2026-04-20 00:51 22.80523 55.60451 34002 ft 522 kts 166°
2026-04-20 00:52 22.75897 55.61818 33978 ft 525 kts 165°
2026-04-20 00:52 22.70097 55.63580 33964 ft 525 kts 165°
2026-04-20 00:53 22.63196 55.65687 33908 ft 525 kts 165°
2026-04-20 00:53 22.56276 55.67802 33870 ft 524 kts 165°
2026-04-20 00:54 22.50442 55.69592 33868 ft 523 kts 165°
2026-04-20 00:54 22.43519 55.71714 33848 ft 523 kts 165°
2026-04-20 00:55 22.37191 55.73650 33860 ft 523 kts 165°
2026-04-20 00:55 22.30183 55.75791 33858 ft 524 kts 165°
2026-04-20 00:56 22.23077 55.77504 33848 ft 523 kts 175°
2026-04-20 00:56 22.15835 55.78187 33845 ft 523 kts 177°
2026-04-20 00:57 22.08571 55.78854 33865 ft 525 kts 176°
2026-04-20 00:57 22.01280 55.79572 33855 ft 527 kts 176°
2026-04-20 00:58 21.93965 55.80311 33850 ft 528 kts 176°
2026-04-20 00:58 21.86647 55.81050 33844 ft 529 kts 176°
2026-04-20 00:59 21.79317 55.81786 33850 ft 529 kts 176°
2026-04-20 00:59 21.71995 55.82520 33853 ft 529 kts 176°
2026-04-20 01:00 21.64668 55.83246 33836 ft 529 kts 177°
2026-04-20 01:00 21.57345 55.83959 33849 ft 529 kts 176°
2026-04-20 01:01 21.50021 55.84673 33860 ft 529 kts 176°
2026-04-20 01:01 21.42681 55.85389 33854 ft 530 kts 176°
2026-04-20 01:02 21.35335 55.86106 33853 ft 530 kts 176°
2026-04-20 01:02 21.27994 55.86822 33852 ft 530 kts 176°
2026-04-20 01:03 21.20653 55.87532 33851 ft 530 kts 177°
2026-04-20 01:03 21.13309 55.88236 33859 ft 530 kts 177°
2026-04-20 01:04 21.05957 55.88942 33848 ft 530 kts 177°
2026-04-20 01:04 20.98605 55.89648 33844 ft 531 kts 177°
2026-04-20 01:05 20.91284 55.90351 33850 ft 531 kts 177°
2026-04-20 01:05 20.83926 55.91058 33839 ft 532 kts 177°
2026-04-20 01:06 20.76575 55.91780 33862 ft 532 kts 177°
2026-04-20 01:06 20.69143 55.92513 33856 ft 533 kts 177°
2026-04-20 01:07 20.61801 55.93234 33854 ft 533 kts 177°
2026-04-20 01:07 20.54406 55.93959 33840 ft 534 kts 177°
2026-04-20 01:08 20.46998 55.94684 33859 ft 535 kts 177°
2026-04-20 01:08 20.39572 55.95410 33859 ft 536 kts 177°
2026-04-20 01:09 20.32139 55.96137 33854 ft 537 kts 177°
2026-04-20 01:09 20.24692 55.96853 33852 ft 538 kts 178°
2026-04-20 01:10 20.17224 55.97560 33859 ft 539 kts 178°
2026-04-20 01:10 20.06000 55.98519 33859 ft 538 kts 181°
2026-04-20 01:11 19.98514 55.98692 33846 ft 538 kts 182°
2026-04-20 01:11 19.91027 55.98828 33861 ft 539 kts 182°
2026-04-20 01:12 19.83529 55.98997 33860 ft 539 kts 182°
2026-04-20 01:12 19.76023 55.99183 33859 ft 539 kts 182°
2026-04-20 01:13 19.68579 55.99366 33849 ft 539 kts 182°
2026-04-20 01:13 19.61189 55.99544 33861 ft 538 kts 182°
2026-04-20 01:14 19.53764 55.99453 33853 ft 532 kts 192°
2026-04-20 01:14 19.46805 55.97446 33860 ft 519 kts 208°
2026-04-20 01:15 19.40674 55.93908 33864 ft 510 kts 217°
2026-04-20 01:15 19.34667 55.90148 33861 ft 512 kts 216°
2026-04-20 01:16 19.28595 55.86431 33861 ft 513 kts 216°
2026-04-20 01:16 19.22436 55.82704 33860 ft 514 kts 216°
2026-04-20 01:17 19.17275 55.79584 33860 ft 514 kts 216°
2026-04-20 01:17 19.11066 55.75828 33853 ft 513 kts 216°
2026-04-20 01:18 19.04889 55.72094 33856 ft 510 kts 216°
2026-04-20 01:18 18.98737 55.68390 33857 ft 508 kts 216°
2026-04-20 01:19 18.92601 55.64704 33859 ft 506 kts 216°
2026-04-20 01:19 18.86481 55.61027 33861 ft 506 kts 216°
2026-04-20 01:20 18.80386 55.57366 33870 ft 506 kts 216°
2026-04-20 01:20 18.74268 55.53694 33873 ft 507 kts 216°
2026-04-20 01:21 18.68478 55.50222 33869 ft 508 kts 216°
2026-04-20 01:21 18.62863 55.46858 33879 ft 510 kts 216°
2026-04-20 01:22 18.56689 55.43163 33876 ft 511 kts 216°
2026-04-20 01:22 18.50507 55.39466 33879 ft 512 kts 216°
2026-04-20 01:23 18.44305 55.35760 33873 ft 513 kts 216°
2026-04-20 01:23 18.38104 55.32057 33882 ft 512 kts 216°
2026-04-20 01:24 18.31911 55.28362 33879 ft 511 kts 216°
2026-04-20 01:24 18.25725 55.24673 33867 ft 511 kts 217°
2026-04-20 01:25 18.19543 55.20985 33891 ft 510 kts 217°
2026-04-20 01:25 18.13328 55.17358 33885 ft 514 kts 213°
2026-04-20 01:26 18.06727 55.14347 33893 ft 518 kts 210°
2026-04-20 01:26 18.00065 55.11426 33894 ft 519 kts 210°
2026-04-20 01:27 17.93411 55.08474 33892 ft 519 kts 210°
2026-04-20 01:27 17.86811 55.05517 33886 ft 519 kts 210°
2026-04-20 01:28 17.81263 55.03027 33889 ft 519 kts 210°
2026-04-20 01:28 17.75190 55.00306 33887 ft 519 kts 210°
2026-04-20 01:29 17.68550 54.97335 33895 ft 519 kts 210°
2026-04-20 01:29 17.61926 54.94376 33900 ft 518 kts 210°
2026-04-20 01:30 17.55304 54.91417 33902 ft 517 kts 210°
2026-04-20 01:30 17.48779 54.88505 33906 ft 517 kts 210°
2026-04-20 01:31 17.42242 54.85589 33916 ft 517 kts 210°
2026-04-20 01:31 17.35723 54.82685 33907 ft 517 kts 210°
2026-04-20 01:32 17.29149 54.79756 33906 ft 516 kts 211°
2026-04-20 01:32 17.22926 54.76207 33900 ft 505 kts 220°
2026-04-20 01:33 17.17173 54.72271 33893 ft 505 kts 220°
2026-04-20 01:33 17.11850 54.68663 33910 ft 504 kts 220°
2026-04-20 01:34 17.06845 54.65312 33891 ft 505 kts 220°
2026-04-20 01:34 17.02741 54.62572 33828 ft 505 kts 220°
2026-04-20 01:35 16.99351 54.60311 33920 ft 503 kts 220°
2026-04-20 01:35 16.96603 54.58491 33619 ft 509 kts 213°
2026-04-20 01:36 16.94844 54.57815 32750 ft 535 kts 191°
2026-04-20 01:36 16.93064 54.57823 31686 ft 561 kts 169°
2026-04-20 01:36 16.91472 54.58273 31328 ft 563 kts 163°
2026-04-20 01:36 16.90028 54.58923 31856 ft 533 kts 154°
2026-04-20 01:37 16.88643 54.59552 32763 ft 501 kts 163°
2026-04-20 01:37 16.87369 54.60003 33544 ft 478 kts 162°
2026-04-20 01:37 16.86191 54.60457 34117 ft 465 kts 159°
2026-04-20 01:37 16.85080 54.61019 34288 ft 463 kts 148°
2026-04-20 01:38 16.83942 54.61823 33789 ft 468 kts 137°
2026-04-20 01:38 16.83025 54.62803 32580 ft 482 kts 123°
2026-04-20 01:38 16.82182 54.63903 31464 ft 511 kts 136°
2026-04-20 01:38 16.81213 54.64952 30638 ft 527 kts 123°
2026-04-20 01:39 16.80446 54.66315 29423 ft 530 kts 105°
2026-04-20 01:39 16.80133 54.67813 28035 ft 511 kts 82°
2026-04-20 01:39 16.79984 54.69361 24534 ft 526 kts 142°
2026-04-20 01:39 16.78596 54.70451 24064 ft 514 kts 146°
2026-04-20 01:40 16.77268 54.71379 22541 ft 505 kts 148°
2026-04-20 01:40 16.75780 54.72162 19628 ft 503 kts 159°
2026-04-20 01:40 16.74452 54.72595 18556 ft 517 kts 163°
2026-04-20 01:40 16.73336 54.72909 18547 ft 505 kts 165°
2026-04-20 01:41 16.72162 54.73189 18433 ft 496 kts 169°
2026-04-20 01:41 16.68972 54.73628 17845 ft 480 kts 181°
2026-04-20 01:41 16.65766 54.72996 17680 ft 462 kts 204°
2026-04-20 01:41 16.63082 54.71222 17952 ft 461 kts 225°
2026-04-20 01:42 16.61156 54.68582 18229 ft 458 kts 245°
2026-04-20 01:42 16.59945 54.65518 18457 ft 457 kts 254°
2026-04-20 01:42 16.59045 54.62345 18662 ft 457 kts 258°
2026-04-20 01:42 16.58278 54.59181 18912 ft 456 kts 259°
2026-04-20 01:43 16.57540 54.55930 19150 ft 456 kts 259°
2026-04-20 01:43 16.56787 54.52720 19388 ft 456 kts 258°
2026-04-20 01:43 16.55953 54.49520 19603 ft 458 kts 257°
2026-04-20 01:43 16.55018 54.46343 19838 ft 460 kts 255°
2026-04-20 01:44 16.53970 54.43182 20050 ft 462 kts 252°
2026-04-20 01:44 16.52808 54.40057 20312 ft 463 kts 250°
2026-04-20 01:44 16.51531 54.36971 20559 ft 465 kts 248°
2026-04-20 01:44 16.50139 54.33926 20831 ft 467 kts 246°
2026-04-20 01:45 16.48625 54.30917 21095 ft 469 kts 244°
2026-04-20 01:45 16.47005 54.28008 21339 ft 473 kts 240°
2026-04-20 01:45 16.45047 54.25234 21595 ft 478 kts 232°
2026-04-20 01:45 16.42687 54.22761 21822 ft 484 kts 223°
2026-04-20 01:46 16.40032 54.20588 22081 ft 488 kts 218°
2026-04-20 01:46 16.37198 54.18611 22314 ft 491 kts 214°
2026-04-20 01:46 16.34291 54.16738 22594 ft 493 kts 213°
2026-04-20 01:46 16.31351 54.14888 22886 ft 494 kts 213°
2026-04-20 01:47 16.28411 54.13024 23154 ft 496 kts 214°
2026-04-20 01:47 16.25476 54.11132 23467 ft 497 kts 214°
2026-04-20 01:47 16.22549 54.09217 23692 ft 499 kts 214°
2026-04-20 01:47 16.19615 54.07280 23932 ft 501 kts 215°
2026-04-20 01:48 16.16675 54.05329 24169 ft 503 kts 215°
2026-04-20 01:48 16.13715 54.03364 24401 ft 506 kts 215°
2026-04-20 01:48 16.10741 54.01392 24660 ft 508 kts 215°
2026-04-20 01:48 16.07750 53.99412 24925 ft 510 kts 215°
2026-04-20 01:49 16.04753 53.97429 25206 ft 512 kts 215°
2026-04-20 01:49 16.01759 53.95451 25473 ft 513 kts 215°
2026-04-20 01:49 15.98774 53.93480 25699 ft 516 kts 216°
2026-04-20 01:49 15.95736 53.91473 25899 ft 518 kts 216°
2026-04-20 01:50 15.92695 53.89465 26151 ft 519 kts 216°
2026-04-20 01:50 15.89645 53.87453 26428 ft 520 kts 216°
2026-04-20 01:50 15.86611 53.85449 26717 ft 520 kts 216°
2026-04-20 01:50 15.83573 53.83429 26926 ft 521 kts 216°
2026-04-20 01:51 15.80528 53.81393 27195 ft 522 kts 217°
2026-04-20 01:51 15.77495 53.79362 27462 ft 522 kts 217°
2026-04-20 01:51 15.74447 53.77323 27726 ft 522 kts 217°
2026-04-20 01:51 15.71395 53.75284 28018 ft 522 kts 217°
2026-04-20 01:52 15.68334 53.73241 28287 ft 522 kts 217°
2026-04-20 01:52 15.65282 53.71205 28551 ft 522 kts 217°
2026-04-20 01:52 15.62232 53.69173 28825 ft 522 kts 217°
2026-04-20 01:52 15.59216 53.67163 29073 ft 523 kts 217°
2026-04-20 01:53 15.56160 53.65128 29348 ft 523 kts 218°
2026-04-20 01:53 15.53151 53.63124 29643 ft 522 kts 218°
2026-04-20 01:53 15.50143 53.61122 29940 ft 521 kts 218°
2026-04-20 01:53 15.47141 53.59124 30168 ft 522 kts 218°
2026-04-20 01:54 15.44151 53.57135 30380 ft 522 kts 218°
2026-04-20 01:54 15.41180 53.55177 30625 ft 521 kts 217°
2026-04-20 01:54 15.38209 53.53260 30875 ft 521 kts 217°
2026-04-20 01:54 15.35303 53.51406 31069 ft 521 kts 217°
2026-04-20 01:55 15.32310 53.49502 31279 ft 520 kts 217°
2026-04-20 01:55 15.29314 53.47596 31547 ft 518 kts 217°
2026-04-20 01:55 15.26388 53.45730 31749 ft 518 kts 217°
2026-04-20 01:55 15.23555 53.43920 31961 ft 517 kts 217°
2026-04-20 01:56 15.20791 53.42152 32214 ft 515 kts 217°
2026-04-20 01:56 15.18031 53.40385 32499 ft 513 kts 217°
2026-04-20 01:56 15.15459 53.38738 32667 ft 513 kts 217°
2026-04-20 01:56 15.12756 53.37007 32906 ft 512 kts 217°
2026-04-20 01:57 15.09926 53.35196 33133 ft 511 kts 217°
2026-04-20 01:57 15.07432 53.33601 33347 ft 510 kts 217°
2026-04-20 01:57 15.04712 53.31862 33600 ft 509 kts 217°
2026-04-20 01:57 15.02017 53.30138 33754 ft 509 kts 217°
2026-04-20 01:58 14.99400 53.28466 33860 ft 511 kts 217°
2026-04-20 01:58 14.96466 53.26590 33908 ft 514 kts 217°
2026-04-20 01:58 14.91192 53.23223 33899 ft 509 kts 217°
2026-04-20 01:59 14.85649 53.19690 33889 ft 504 kts 217°
2026-04-20 01:59 14.79901 53.16024 33900 ft 503 kts 217°
2026-04-20 02:00 14.74101 53.12325 33902 ft 503 kts 217°
2026-04-20 02:00 14.68224 53.08581 33904 ft 504 kts 217°
2026-04-20 02:01 14.62413 53.04872 33895 ft 505 kts 217°
2026-04-20 02:01 14.56757 53.01237 33901 ft 506 kts 217°
2026-04-20 02:02 14.50863 52.97445 33899 ft 506 kts 217°
2026-04-20 02:02 14.45017 52.93690 33898 ft 506 kts 217°
2026-04-20 02:03 14.39137 52.89918 33901 ft 506 kts 217°
2026-04-20 02:03 14.33231 52.86132 33901 ft 506 kts 217°
2026-04-20 02:04 14.27486 52.82451 33894 ft 505 kts 217°
2026-04-20 02:04 14.21979 52.78925 33900 ft 505 kts 217°
2026-04-20 02:05 14.16067 52.75141 33898 ft 505 kts 216°
2026-04-20 02:05 14.10094 52.71321 33899 ft 505 kts 216°
2026-04-20 02:06 14.04133 52.67511 33901 ft 505 kts 216°
2026-04-20 02:06 13.98170 52.63703 33895 ft 505 kts 216°
2026-04-20 02:07 13.92278 52.59941 33907 ft 505 kts 216°
2026-04-20 02:07 13.86350 52.56159 33898 ft 505 kts 216°
2026-04-20 02:08 13.80542 52.52455 33892 ft 505 kts 216°
2026-04-20 02:08 13.74628 52.48687 33909 ft 505 kts 216°
2026-04-20 02:09 13.68863 52.45015 33913 ft 504 kts 216°
2026-04-20 02:09 13.63012 52.41292 33897 ft 504 kts 216°
2026-04-20 02:10 13.57104 52.37533 33899 ft 504 kts 216°
2026-04-20 02:10 13.51357 52.33879 33910 ft 504 kts 216°
2026-04-20 02:11 13.45609 52.30226 33906 ft 504 kts 216°
2026-04-20 02:11 13.39783 52.26526 33904 ft 503 kts 216°
2026-04-20 02:12 13.34054 52.22898 33899 ft 503 kts 216°
2026-04-20 02:12 13.28093 52.19133 33897 ft 504 kts 216°
2026-04-20 02:13 13.22133 52.15372 33901 ft 504 kts 216°
2026-04-20 02:13 13.16179 52.11613 33900 ft 504 kts 216°
2026-04-20 02:14 13.10213 52.07848 33899 ft 505 kts 216°
2026-04-20 02:14 13.04237 52.04079 33893 ft 505 kts 216°
2026-04-20 02:15 12.98331 52.00357 33890 ft 505 kts 215°
2026-04-20 02:15 12.92354 51.96592 33898 ft 505 kts 215°
2026-04-20 02:16 12.86404 51.92847 33898 ft 505 kts 215°
2026-04-20 02:16 12.80414 51.89077 33901 ft 505 kts 215°
2026-04-20 02:17 12.74419 51.85307 33892 ft 505 kts 215°
2026-04-20 02:17 12.68425 51.81540 33893 ft 505 kts 215°
2026-04-20 02:18 12.62430 51.77774 33892 ft 505 kts 215°
2026-04-20 02:18 12.56441 51.74015 33893 ft 505 kts 215°
2026-04-20 02:19 12.50456 51.70259 33900 ft 505 kts 215°
2026-04-20 02:19 12.44468 51.66504 33898 ft 505 kts 215°
2026-04-20 02:20 12.38474 51.62747 33895 ft 505 kts 215°
2026-04-20 02:20 12.32487 51.58996 33890 ft 505 kts 215°
2026-04-20 02:21 12.23507 51.53374 33893 ft 505 kts 215°
2026-04-20 02:22 12.17553 51.49650 33894 ft 505 kts 215°
2026-04-20 02:22 12.12530 51.46508 33893 ft 505 kts 215°
2026-04-20 02:23 12.06536 51.42761 33891 ft 505 kts 215°
2026-04-20 02:23 12.00539 51.39014 33891 ft 505 kts 215°
2026-04-20 02:24 11.94537 51.35266 33900 ft 505 kts 215°
2026-04-20 02:24 11.88539 51.31519 33896 ft 505 kts 215°
2026-04-20 02:25 11.82540 51.27773 33902 ft 505 kts 215°
2026-04-20 02:25 11.76585 51.24057 33897 ft 505 kts 214°
2026-04-20 02:26 11.70586 51.20315 33903 ft 505 kts 214°
2026-04-20 02:26 11.64585 51.16573 33910 ft 506 kts 214°
2026-04-20 02:27 11.58578 51.12830 33916 ft 506 kts 214°
2026-04-20 02:27 11.52568 51.09087 33916 ft 506 kts 214°
2026-04-20 02:28 11.46558 51.05344 33925 ft 506 kts 214°
2026-04-20 02:28 11.40506 51.01579 33923 ft 506 kts 214°
2026-04-20 02:29 11.34538 50.97866 33922 ft 506 kts 214°
2026-04-20 02:29 11.28531 50.94123 33940 ft 506 kts 214°
2026-04-20 02:30 11.22516 50.90376 33946 ft 507 kts 214°
2026-04-20 02:30 11.16493 50.86626 33946 ft 508 kts 214°
2026-04-20 02:31 11.10464 50.82876 33941 ft 508 kts 214°
2026-04-20 02:31 11.04432 50.79125 33945 ft 508 kts 214°
2026-04-20 02:32 10.98392 50.75372 33943 ft 509 kts 214°
2026-04-20 02:32 10.92348 50.71617 33944 ft 509 kts 214°
2026-04-20 02:33 10.86302 50.67863 33950 ft 509 kts 214°
2026-04-20 02:33 10.80260 50.64113 33952 ft 509 kts 214°
2026-04-20 02:34 10.74213 50.60362 33939 ft 509 kts 213°
2026-04-20 02:34 10.68171 50.56616 33950 ft 509 kts 213°
2026-04-20 02:35 10.62125 50.52869 33952 ft 509 kts 213°
2026-04-20 02:35 10.56078 50.49124 33951 ft 509 kts 213°
2026-04-20 02:36 10.50029 50.45378 33954 ft 509 kts 213°
2026-04-20 02:36 10.43980 50.41634 33952 ft 509 kts 213°
2026-04-20 02:37 10.37925 50.37889 33951 ft 510 kts 213°
2026-04-20 02:37 10.31869 50.34144 33951 ft 510 kts 213°
2026-04-20 02:38 10.25808 50.30399 33961 ft 510 kts 213°
2026-04-20 02:38 10.19746 50.26654 33956 ft 510 kts 213°
2026-04-20 02:39 10.13680 50.22908 33960 ft 510 kts 213°
2026-04-20 02:39 10.07650 50.19187 33969 ft 511 kts 213°
2026-04-20 02:40 10.01580 50.15442 33969 ft 511 kts 213°
2026-04-20 02:40 9.95501 50.11694 33971 ft 511 kts 213°
2026-04-20 02:41 9.89422 50.07947 33973 ft 511 kts 213°
2026-04-20 02:41 9.83345 50.04204 33974 ft 511 kts 213°
2026-04-20 02:42 9.77266 50.00460 33972 ft 511 kts 213°
2026-04-20 02:42 9.71189 49.96719 33974 ft 511 kts 213°
2026-04-20 02:43 9.65114 49.92981 33976 ft 511 kts 213°
2026-04-20 02:43 9.59041 49.89246 33974 ft 511 kts 213°
2026-04-20 02:44 9.52961 49.85508 33980 ft 511 kts 213°
2026-04-20 02:44 9.46884 49.81773 33976 ft 511 kts 213°
2026-04-20 02:45 9.40801 49.78036 33978 ft 511 kts 213°
2026-04-20 02:45 9.34717 49.74300 33970 ft 511 kts 213°
2026-04-20 02:46 9.28633 49.70565 33976 ft 512 kts 213°
2026-04-20 02:46 9.22545 49.66829 33972 ft 512 kts 213°
2026-04-20 02:47 9.16452 49.63099 33971 ft 512 kts 213°
2026-04-20 02:47 9.10355 49.59372 33978 ft 512 kts 213°
2026-04-20 02:48 9.04255 49.55643 33976 ft 512 kts 213°
2026-04-20 02:48 8.98195 49.51937 33974 ft 512 kts 213°
2026-04-20 02:49 8.92096 49.48210 33976 ft 512 kts 213°
2026-04-20 02:49 8.85996 49.44483 33969 ft 512 kts 213°
2026-04-20 02:50 8.79892 49.40755 33971 ft 512 kts 213°
2026-04-20 02:50 8.73791 49.37030 33974 ft 512 kts 213°
2026-04-20 02:51 8.67685 49.33304 33973 ft 513 kts 213°
2026-04-20 02:51 8.61581 49.29580 33958 ft 513 kts 213°
2026-04-20 02:52 8.55476 49.25860 33963 ft 512 kts 213°
2026-04-20 02:52 8.49372 49.22141 33962 ft 512 kts 213°
2026-04-20 02:53 8.43265 49.18420 33957 ft 512 kts 213°
2026-04-20 02:53 8.37160 49.14701 33963 ft 512 kts 213°
2026-04-20 02:54 8.31056 49.10984 33963 ft 512 kts 213°
2026-04-20 02:54 8.24953 49.07269 33965 ft 512 kts 213°
2026-04-20 02:55 8.18847 49.03554 33957 ft 512 kts 213°
2026-04-20 02:55 8.12746 48.99843 33963 ft 512 kts 213°
2026-04-20 02:56 8.06646 48.96134 33965 ft 512 kts 213°
2026-04-20 02:56 8.00550 48.92429 33960 ft 512 kts 213°
2026-04-20 02:57 7.94454 48.88725 33962 ft 511 kts 213°
2026-04-20 02:57 7.88358 48.85023 33954 ft 511 kts 213°
2026-04-20 02:58 7.82265 48.81323 33978 ft 511 kts 213°
2026-04-20 02:58 7.76169 48.77623 33950 ft 511 kts 213°
2026-04-20 02:59 7.70116 48.73950 33952 ft 511 kts 213°
2026-04-20 02:59 7.64022 48.70254 33944 ft 511 kts 213°
2026-04-20 03:00 7.57923 48.66556 33943 ft 512 kts 213°
2026-04-20 03:00 7.51823 48.62858 33952 ft 512 kts 213°
2026-04-20 03:01 7.45720 48.59159 33940 ft 512 kts 213°
2026-04-20 03:01 7.39616 48.55460 33929 ft 512 kts 213°
2026-04-20 03:02 7.33507 48.51759 33949 ft 512 kts 213°
2026-04-20 03:02 7.27421 48.48021 33940 ft 512 kts 213°
2026-04-20 03:03 7.21346 48.44261 33923 ft 513 kts 213°
2026-04-20 03:03 7.15268 48.40503 33916 ft 513 kts 213°
2026-04-20 03:04 7.09187 48.36752 33924 ft 513 kts 213°
2026-04-20 03:04 7.03103 48.33003 33935 ft 513 kts 213°
2026-04-20 03:05 6.97018 48.29254 33915 ft 513 kts 213°
2026-04-20 03:05 6.90927 48.25502 33967 ft 515 kts 213°
2026-04-20 03:05 6.87866 48.23617 34224 ft 515 kts 213°
2026-04-20 03:06 6.84818 48.21741 34603 ft 512 kts 213°
2026-04-20 03:06 6.81792 48.19878 35030 ft 508 kts 213°
2026-04-20 03:06 6.78786 48.18028 35410 ft 505 kts 213°
2026-04-20 03:06 6.75796 48.16188 35756 ft 503 kts 213°
2026-04-20 03:07 6.72804 48.14347 35865 ft 506 kts 213°
2026-04-20 03:07 6.66796 48.10650 35919 ft 505 kts 213°
2026-04-20 03:08 6.60812 48.06970 35914 ft 502 kts 213°
2026-04-20 03:08 6.56984 48.04616 35918 ft 501 kts 213°
2026-04-20 03:09 6.51045 48.00965 35918 ft 500 kts 213°
2026-04-20 03:09 6.45114 47.97319 35919 ft 500 kts 212°
2026-04-20 03:10 6.39180 47.93673 35919 ft 500 kts 212°
2026-04-20 03:10 6.33232 47.90019 35920 ft 502 kts 212°
2026-04-20 03:11 6.27269 47.86357 35919 ft 503 kts 212°
2026-04-20 03:11 6.21290 47.82687 35919 ft 504 kts 212°
2026-04-20 03:12 6.15305 47.79013 35919 ft 505 kts 212°
2026-04-20 03:12 6.09307 47.75333 35917 ft 505 kts 212°
2026-04-20 03:13 6.03311 47.71655 35919 ft 505 kts 212°
2026-04-20 03:13 5.97313 47.67977 35917 ft 505 kts 212°
2026-04-20 03:14 5.91363 47.64328 35915 ft 504 kts 212°
2026-04-20 03:14 5.85377 47.60658 35920 ft 504 kts 212°
2026-04-20 03:15 5.79400 47.56995 35917 ft 503 kts 212°
2026-04-20 03:15 5.73422 47.53332 35917 ft 503 kts 212°
2026-04-20 03:16 5.67449 47.49672 35920 ft 503 kts 212°
2026-04-20 03:16 5.61470 47.46030 35926 ft 503 kts 212°
2026-04-20 03:17 5.55478 47.42418 35920 ft 503 kts 212°
2026-04-20 03:17 5.49482 47.38806 35921 ft 503 kts 212°
2026-04-20 03:18 5.43488 47.35189 35921 ft 503 kts 212°
2026-04-20 03:18 5.37495 47.31572 35921 ft 503 kts 212°
2026-04-20 03:19 5.31504 47.27954 35918 ft 503 kts 211°
2026-04-20 03:19 5.25511 47.24338 35922 ft 503 kts 211°
2026-04-20 03:20 5.19518 47.20722 35919 ft 503 kts 211°
2026-04-20 03:20 5.13518 47.17103 35922 ft 503 kts 211°
2026-04-20 03:21 5.07517 47.13484 35920 ft 503 kts 211°
2026-04-20 03:21 5.01520 47.09869 35920 ft 503 kts 211°
2026-04-20 03:22 4.95516 47.06249 35922 ft 503 kts 211°
2026-04-20 03:22 4.89514 47.02632 35923 ft 503 kts 211°
2026-04-20 03:23 4.83511 46.99016 35919 ft 503 kts 211°
2026-04-20 03:23 4.77507 46.95398 35923 ft 503 kts 211°
2026-04-20 03:24 4.71501 46.91781 35915 ft 503 kts 211°
2026-04-20 03:24 4.65540 46.88191 35918 ft 503 kts 211°
2026-04-20 03:25 4.59538 46.84579 35921 ft 503 kts 211°
2026-04-20 03:25 4.53536 46.80966 35921 ft 503 kts 211°
2026-04-20 03:26 4.47533 46.77353 35922 ft 503 kts 211°
2026-04-20 03:26 4.41528 46.73740 35918 ft 504 kts 211°
2026-04-20 03:27 4.35520 46.70125 35920 ft 504 kts 211°
2026-04-20 03:27 4.29511 46.66512 35917 ft 504 kts 211°
2026-04-20 03:28 4.23500 46.62897 35920 ft 504 kts 211°
2026-04-20 03:28 4.14483 46.57476 35920 ft 504 kts 211°
2026-04-20 03:29 4.08468 46.53861 35919 ft 504 kts 211°
2026-04-20 03:29 4.02452 46.50245 35918 ft 504 kts 211°
2026-04-20 03:30 3.96432 46.46628 35917 ft 504 kts 211°
2026-04-20 03:30 3.90414 46.43013 35919 ft 505 kts 211°
2026-04-20 03:31 3.84393 46.39396 35916 ft 505 kts 210°
2026-04-20 03:31 3.78370 46.35779 35918 ft 505 kts 210°
2026-04-20 03:32 3.72342 46.32160 35919 ft 505 kts 210°
2026-04-20 03:32 3.66312 46.28540 35917 ft 505 kts 210°
2026-04-20 03:33 3.60286 46.24922 35917 ft 505 kts 210°
2026-04-20 03:33 3.54257 46.21304 35922 ft 505 kts 210°
2026-04-20 03:34 3.48224 46.17684 35925 ft 506 kts 210°
2026-04-20 03:34 3.42189 46.14063 35920 ft 506 kts 210°
2026-04-20 03:35 3.36155 46.10443 35919 ft 506 kts 210°
2026-04-20 03:35 3.30120 46.06823 35920 ft 506 kts 210°
2026-04-20 03:36 3.24085 46.03204 35920 ft 506 kts 210°
2026-04-20 03:36 3.18044 45.99581 35917 ft 506 kts 210°
2026-04-20 03:37 3.12047 45.95986 35919 ft 506 kts 210°
2026-04-20 03:37 3.06006 45.92364 35913 ft 506 kts 210°
2026-04-20 03:38 2.99968 45.88745 35917 ft 506 kts 210°
2026-04-20 03:38 2.93929 45.85126 35913 ft 506 kts 210°
2026-04-20 03:39 2.87890 45.81507 35915 ft 506 kts 210°
2026-04-20 03:39 2.81853 45.77890 35916 ft 506 kts 210°
2026-04-20 03:40 2.75815 45.74272 35914 ft 506 kts 210°
2026-04-20 03:40 2.69776 45.70655 35911 ft 506 kts 210°
2026-04-20 03:41 2.63737 45.67038 35917 ft 506 kts 210°
2026-04-20 03:41 2.57697 45.63421 35913 ft 506 kts 210°
2026-04-20 03:42 2.51654 45.59802 35913 ft 506 kts 210°
2026-04-20 03:42 2.45609 45.56183 35914 ft 506 kts 210°
2026-04-20 03:43 2.39564 45.52563 35915 ft 506 kts 210°
2026-04-20 03:43 2.33515 45.48942 35916 ft 507 kts 210°
2026-04-20 03:44 2.27508 45.45347 35909 ft 507 kts 210°
2026-04-20 03:44 2.21422 45.41703 35910 ft 507 kts 210°
2026-04-20 03:45 2.15414 45.38107 35909 ft 507 kts 210°
2026-04-20 03:45 2.09328 45.34465 35910 ft 506 kts 210°
2026-04-20 03:46 2.03327 45.30874 35907 ft 506 kts 210°
2026-04-20 03:46 1.97330 45.27109 35900 ft 505 kts 213°
2026-04-20 03:47 1.91550 45.23197 35907 ft 505 kts 214°
2026-04-20 03:47 1.85749 45.19243 35907 ft 505 kts 214°
2026-04-20 03:48 1.80078 45.15402 35903 ft 504 kts 213°
2026-04-20 03:48 1.74262 45.11480 35906 ft 504 kts 213°
2026-04-20 03:49 1.68452 45.07568 35906 ft 504 kts 213°
2026-04-20 03:49 1.62638 45.03651 35906 ft 504 kts 213°
2026-04-20 03:50 1.56832 44.99739 35908 ft 503 kts 214°
2026-04-20 03:50 1.51025 44.95826 35900 ft 504 kts 213°
2026-04-20 03:51 1.45216 44.91912 35906 ft 504 kts 213°
2026-04-20 03:51 1.39406 44.87998 35904 ft 504 kts 213°
2026-04-20 03:52 1.33631 44.84107 35903 ft 504 kts 214°
2026-04-20 03:52 1.27817 44.80191 35906 ft 504 kts 214°
2026-04-20 03:53 1.22006 44.76276 35905 ft 504 kts 214°
2026-04-20 03:53 1.16192 44.72360 35904 ft 504 kts 214°
2026-04-20 03:54 1.10379 44.68445 35907 ft 504 kts 214°
2026-04-20 03:54 1.04562 44.64528 35908 ft 504 kts 214°
2026-04-20 03:55 0.98751 44.60614 35907 ft 504 kts 214°
2026-04-20 03:55 0.92941 44.56701 35906 ft 503 kts 214°
2026-04-20 03:56 0.87135 44.52791 35903 ft 503 kts 214°
2026-04-20 03:56 0.81331 44.48883 35907 ft 503 kts 214°
2026-04-20 03:57 0.75536 44.44981 35909 ft 502 kts 214°
2026-04-20 03:57 0.70722 44.41739 35909 ft 502 kts 214°
2026-04-20 03:58 0.64932 44.37840 35909 ft 501 kts 214°
2026-04-20 03:58 0.59152 44.33948 35909 ft 501 kts 214°
2026-04-20 03:59 0.53373 44.30057 35908 ft 501 kts 214°
2026-04-20 03:59 0.47597 44.26168 35906 ft 501 kts 214°
2026-04-20 04:00 0.41822 44.22279 35906 ft 500 kts 214°
2026-04-20 04:00 0.36047 44.18390 35911 ft 501 kts 214°
2026-04-20 04:01 0.30273 44.14500 35910 ft 501 kts 214°
2026-04-20 04:01 0.24500 44.10597 35908 ft 501 kts 214°
2026-04-20 04:02 0.18729 44.06689 35906 ft 501 kts 214°
2026-04-20 04:02 0.12963 44.02786 35908 ft 501 kts 214°
2026-04-20 04:03 0.07196 43.98883 35912 ft 501 kts 214°
2026-04-20 04:03 0.01429 43.94981 35913 ft 500 kts 214°
2026-04-20 04:04 -0.04295 43.91108 35909 ft 500 kts 214°
2026-04-20 04:04 -0.10049 43.87214 35906 ft 499 kts 214°
2026-04-20 04:05 -0.15797 43.83324 35909 ft 499 kts 214°
2026-04-20 04:05 -0.21537 43.79440 35912 ft 498 kts 214°
2026-04-20 04:06 -0.27274 43.75558 35912 ft 498 kts 214°
2026-04-20 04:06 -0.33007 43.71678 35912 ft 497 kts 214°
2026-04-20 04:07 -0.38735 43.67802 35913 ft 497 kts 214°
2026-04-20 04:07 -0.44464 43.63925 35915 ft 497 kts 214°
2026-04-20 04:08 -0.50196 43.60046 35915 ft 498 kts 214°
2026-04-20 04:08 -0.55936 43.56161 35915 ft 498 kts 214°
2026-04-20 04:09 -0.61671 43.52280 35916 ft 498 kts 214°
2026-04-20 04:09 -0.67411 43.48395 35916 ft 498 kts 214°
2026-04-20 04:10 -0.73152 43.44510 35915 ft 498 kts 214°
2026-04-20 04:10 -0.78854 43.40650 35914 ft 498 kts 214°
2026-04-20 04:11 -0.84596 43.36764 35916 ft 498 kts 214°
2026-04-20 04:11 -0.90333 43.32880 35917 ft 498 kts 214°
2026-04-20 04:12 -0.96066 43.29000 35912 ft 497 kts 214°
2026-04-20 04:12 -1.01793 43.25123 35912 ft 497 kts 214°
2026-04-20 04:13 -1.07515 43.21249 35917 ft 497 kts 214°
2026-04-20 04:13 -1.13233 43.17378 35916 ft 496 kts 214°
2026-04-20 04:14 -1.18950 43.13508 35917 ft 496 kts 214°
2026-04-20 04:14 -1.24656 43.09645 35916 ft 495 kts 214°
2026-04-20 04:15 -1.30362 43.05781 35916 ft 495 kts 214°
2026-04-20 04:15 -1.35825 43.02082 35927 ft 495 kts 214°
2026-04-20 04:16 -1.41522 42.98224 35916 ft 495 kts 214°
2026-04-20 04:16 -1.46765 42.94673 35917 ft 494 kts 214°
2026-04-20 04:17 -1.52462 42.90815 35918 ft 494 kts 214°
2026-04-20 04:17 -1.58154 42.86959 35918 ft 494 kts 214°
2026-04-20 04:18 -1.63844 42.83105 35919 ft 494 kts 214°
2026-04-20 04:18 -1.69528 42.79255 35921 ft 494 kts 214°
2026-04-20 04:19 -1.75212 42.75404 35917 ft 494 kts 214°
2026-04-20 04:19 -1.80892 42.71556 35922 ft 494 kts 214°
2026-04-20 04:20 -1.86333 42.67868 35924 ft 494 kts 214°
2026-04-20 04:20 -1.91875 42.64113 35921 ft 494 kts 214°
2026-04-20 04:21 -1.97519 42.60286 35921 ft 494 kts 214°
2026-04-20 04:21 -2.03180 42.56430 35919 ft 493 kts 215°
2026-04-20 04:22 -2.08794 42.52530 35921 ft 492 kts 215°
2026-04-20 04:22 -2.14347 42.48668 35925 ft 491 kts 215°
2026-04-20 04:23 -2.19578 42.45042 35921 ft 491 kts 215°
2026-04-20 04:23 -2.24556 42.41544 35926 ft 491 kts 216°
2026-04-20 04:24 -2.30012 42.37517 35931 ft 490 kts 217°
2026-04-20 04:24 -2.35481 42.33440 35925 ft 490 kts 217°
2026-04-20 04:25 -2.40956 42.29382 35927 ft 490 kts 217°
2026-04-20 04:25 -2.46436 42.25338 35925 ft 489 kts 216°
2026-04-20 04:26 -2.51918 42.21297 35926 ft 489 kts 216°
2026-04-20 04:26 -2.57397 42.17258 35931 ft 489 kts 217°
2026-04-20 04:27 -2.62868 42.13221 35926 ft 489 kts 217°
2026-04-20 04:27 -2.68302 42.09212 35923 ft 488 kts 217°
2026-04-20 04:28 -2.73771 42.05177 35929 ft 488 kts 217°
2026-04-20 04:28 -2.79236 42.01144 35929 ft 488 kts 216°
2026-04-20 04:29 -2.84703 41.97110 35920 ft 488 kts 217°
2026-04-20 04:29 -2.90172 41.93073 35924 ft 489 kts 217°
2026-04-20 04:30 -2.95655 41.89024 35936 ft 490 kts 217°
2026-04-20 04:30 -3.01151 41.84967 35936 ft 492 kts 217°
2026-04-20 04:31 -3.06659 41.80899 35932 ft 493 kts 217°
2026-04-20 04:31 -3.12179 41.76823 35931 ft 493 kts 217°
2026-04-20 04:32 -3.17703 41.72743 35927 ft 493 kts 217°
2026-04-20 04:32 -3.23221 41.68667 35934 ft 493 kts 217°
2026-04-20 04:33 -3.28732 41.64596 35930 ft 492 kts 217°
2026-04-20 04:33 -3.34235 41.60529 35935 ft 491 kts 217°
2026-04-20 04:34 -3.39729 41.56469 35931 ft 491 kts 217°
2026-04-20 04:34 -3.45219 41.52411 35937 ft 490 kts 216°
2026-04-20 04:35 -3.50703 41.48357 35934 ft 489 kts 216°
2026-04-20 04:35 -3.56173 41.44313 35936 ft 489 kts 216°
2026-04-20 04:36 -3.64376 41.38247 35936 ft 488 kts 216°
2026-04-20 04:37 -3.69836 41.34208 35936 ft 488 kts 216°
2026-04-20 04:37 -3.75301 41.30165 35939 ft 488 kts 216°
2026-04-20 04:38 -3.80731 41.26148 35939 ft 488 kts 216°
2026-04-20 04:38 -3.86195 41.22104 35939 ft 488 kts 216°
2026-04-20 04:39 -3.91658 41.18059 35938 ft 489 kts 216°
2026-04-20 04:39 -3.97123 41.14014 35940 ft 489 kts 216°
2026-04-20 04:40 -4.02751 41.10204 35946 ft 488 kts 211°
2026-04-20 04:40 -4.08576 41.06696 35940 ft 488 kts 210°
2026-04-20 04:41 -4.14401 41.03195 35940 ft 488 kts 211°
2026-04-20 04:41 -4.20211 40.99669 35937 ft 488 kts 211°
2026-04-20 04:42 -4.26010 40.96132 35942 ft 488 kts 211°
2026-04-20 04:42 -4.31812 40.92592 35940 ft 488 kts 211°
2026-04-20 04:43 -4.37611 40.89055 35941 ft 488 kts 210°
2026-04-20 04:43 -4.43407 40.85520 35944 ft 488 kts 211°
2026-04-20 04:44 -4.49206 40.81983 35954 ft 488 kts 210°
2026-04-20 04:44 -4.55003 40.78445 35949 ft 488 kts 210°
2026-04-20 04:45 -4.60801 40.74907 35947 ft 488 kts 210°
2026-04-20 04:45 -4.66606 40.71364 35954 ft 488 kts 211°
2026-04-20 04:46 -4.72372 40.67843 35945 ft 489 kts 211°
2026-04-20 04:46 -4.78177 40.64297 35948 ft 489 kts 211°
2026-04-20 04:47 -4.83883 40.60599 35945 ft 489 kts 217°
2026-04-20 04:47 -4.89214 40.56366 35948 ft 489 kts 218°
2026-04-20 04:48 -4.94528 40.52112 35954 ft 489 kts 218°
2026-04-20 04:48 -4.99001 40.48573 35949 ft 489 kts 218°
2026-04-20 04:49 -5.04347 40.44360 35953 ft 489 kts 218°
2026-04-20 04:49 -5.09716 40.40176 35953 ft 488 kts 214°
2026-04-20 04:50 -5.15586 40.36785 35955 ft 487 kts 202°
2026-04-20 04:50 -5.21814 40.34233 35958 ft 487 kts 201°
2026-04-20 04:51 -5.28105 40.31701 35959 ft 487 kts 201°
2026-04-20 04:51 -5.34392 40.29139 35962 ft 488 kts 202°
2026-04-20 04:52 -5.40682 40.26551 35974 ft 489 kts 201°
2026-04-20 04:52 -5.46980 40.23952 35956 ft 489 kts 201°
2026-04-20 04:53 -5.53275 40.21355 35962 ft 489 kts 201°
2026-04-20 04:53 -5.59571 40.18758 35958 ft 489 kts 202°
2026-04-20 04:54 -5.65864 40.16162 35960 ft 489 kts 202°
2026-04-20 04:54 -5.72149 40.13568 35964 ft 488 kts 201°
2026-04-20 04:55 -5.78427 40.10977 35965 ft 488 kts 202°
2026-04-20 04:55 -5.84699 40.08389 35961 ft 487 kts 202°
2026-04-20 04:56 -5.90966 40.05801 35967 ft 487 kts 202°
2026-04-20 04:56 -5.97225 40.03216 35983 ft 486 kts 202°
2026-04-20 04:57 -6.03254 40.00725 35963 ft 486 kts 202°
2026-04-20 04:57 -6.09513 39.98139 35961 ft 486 kts 202°
2026-04-20 04:58 -6.15771 39.95552 35976 ft 486 kts 202°
2026-04-20 04:58 -6.21988 39.92982 35955 ft 487 kts 202°
2026-04-20 04:59 -6.28250 39.90392 35957 ft 487 kts 202°
2026-04-20 04:59 -6.34514 39.87801 35959 ft 487 kts 202°
2026-04-20 05:00 -6.40776 39.85210 35961 ft 487 kts 202°
2026-04-20 05:00 -6.47038 39.82619 35948 ft 487 kts 202°
2026-04-20 05:01 -6.53298 39.80027 35950 ft 486 kts 202°
2026-04-20 05:01 -6.59548 39.77439 35954 ft 486 kts 202°
2026-04-20 05:02 -6.65787 39.74855 35940 ft 485 kts 202°
2026-04-20 05:02 -6.72032 39.72268 35948 ft 485 kts 202°
2026-04-20 05:03 -6.78265 39.69685 35949 ft 484 kts 202°
2026-04-20 05:03 -6.84498 39.67101 35969 ft 484 kts 203°
2026-04-20 05:04 -6.90730 39.64517 35945 ft 485 kts 203°
2026-04-20 05:04 -6.96977 39.61925 35949 ft 485 kts 202°
2026-04-20 05:05 -7.03215 39.59337 35957 ft 484 kts 203°
2026-04-20 05:05 -7.09434 39.56756 35952 ft 483 kts 203°
2026-04-20 05:06 -7.15633 39.54183 35951 ft 481 kts 203°
2026-04-20 05:06 -7.21811 39.51617 35950 ft 480 kts 202°
2026-04-20 05:07 -7.27987 39.49052 35954 ft 480 kts 203°
2026-04-20 05:07 -7.34162 39.46486 35972 ft 480 kts 203°
2026-04-20 05:08 -7.40349 39.43915 35957 ft 481 kts 203°
2026-04-20 05:08 -7.46534 39.41343 35958 ft 481 kts 203°
2026-04-20 05:09 -7.52726 39.38768 35963 ft 481 kts 202°
2026-04-20 05:09 -7.58872 39.36211 35964 ft 481 kts 203°
2026-04-20 05:10 -7.65060 39.33636 35969 ft 481 kts 203°
2026-04-20 05:10 -7.71247 39.31061 35970 ft 481 kts 203°
2026-04-20 05:11 -7.77441 39.28481 35975 ft 482 kts 203°
2026-04-20 05:11 -7.83641 39.25899 35976 ft 482 kts 203°
2026-04-20 05:12 -7.89842 39.23315 35980 ft 482 kts 203°
2026-04-20 05:12 -7.96048 39.20729 35988 ft 482 kts 203°
2026-04-20 05:13 -8.02246 39.18144 35982 ft 481 kts 203°
2026-04-20 05:13 -8.08430 39.15565 35980 ft 480 kts 203°
2026-04-20 05:14 -8.14603 39.12989 35985 ft 479 kts 203°
2026-04-20 05:14 -8.20762 39.10419 35996 ft 479 kts 203°
2026-04-20 05:15 -8.26914 39.07850 36003 ft 478 kts 203°
2026-04-20 05:15 -8.33058 39.05284 36001 ft 478 kts 203°
2026-04-20 05:16 -8.39197 39.02719 36008 ft 477 kts 203°
2026-04-20 05:16 -8.45336 39.00153 36011 ft 477 kts 203°
2026-04-20 05:17 -8.51474 38.97587 36005 ft 478 kts 203°
2026-04-20 05:17 -8.57576 38.95036 36019 ft 478 kts 203°
2026-04-20 05:18 -8.63762 38.92447 36014 ft 478 kts 203°
2026-04-20 05:18 -8.69866 38.89892 36013 ft 478 kts 203°
2026-04-20 05:19 -8.76015 38.87318 36012 ft 478 kts 203°
2026-04-20 05:19 -8.82164 38.84742 36015 ft 478 kts 203°
2026-04-20 05:20 -8.88314 38.82166 36013 ft 478 kts 203°
2026-04-20 05:20 -8.94460 38.79590 36010 ft 478 kts 203°
2026-04-20 05:21 -9.00606 38.77013 36008 ft 478 kts 203°
2026-04-20 05:21 -9.06744 38.74439 36017 ft 478 kts 203°
2026-04-20 05:22 -9.12885 38.71862 36022 ft 478 kts 203°
2026-04-20 05:22 -9.19025 38.69285 36017 ft 478 kts 203°
2026-04-20 05:23 -9.25163 38.66707 36022 ft 478 kts 203°
2026-04-20 05:23 -9.31302 38.64129 36025 ft 478 kts 203°
2026-04-20 05:24 -9.37444 38.61547 36033 ft 478 kts 203°
2026-04-20 05:24 -9.43583 38.58966 36031 ft 478 kts 203°
2026-04-20 05:25 -9.49722 38.56385 36031 ft 478 kts 203°
2026-04-20 05:25 -9.55820 38.53820 36028 ft 477 kts 203°
2026-04-20 05:26 -9.61952 38.51239 36033 ft 477 kts 203°
2026-04-20 05:26 -9.68082 38.48658 36031 ft 477 kts 203°
2026-04-20 05:27 -9.74213 38.46075 36036 ft 477 kts 203°
2026-04-20 05:27 -9.80339 38.43494 36047 ft 477 kts 203°
2026-04-20 05:28 -9.86463 38.40912 36037 ft 476 kts 204°
2026-04-20 05:28 -9.92582 38.38332 36037 ft 476 kts 203°
2026-04-20 05:29 -9.98695 38.35753 36036 ft 476 kts 203°
2026-04-20 05:29 -10.04811 38.33172 36036 ft 476 kts 203°
2026-04-20 05:30 -10.10919 38.30592 36044 ft 476 kts 203°
2026-04-20 05:30 -10.17030 38.28011 36044 ft 475 kts 203°
2026-04-20 05:31 -10.23095 38.25448 36049 ft 476 kts 203°
2026-04-20 05:31 -10.29204 38.22865 36049 ft 476 kts 203°
2026-04-20 05:32 -10.35318 38.20279 36045 ft 476 kts 203°
2026-04-20 05:32 -10.41432 38.17692 36056 ft 476 kts 203°
2026-04-20 05:33 -10.47542 38.15106 36050 ft 476 kts 203°
2026-04-20 05:33 -10.53651 38.12519 36052 ft 475 kts 203°
2026-04-20 05:34 -10.59754 38.09934 36049 ft 475 kts 203°
2026-04-20 05:34 -10.68911 38.06052 36057 ft 475 kts 203°
2026-04-20 05:35 -10.75015 38.03463 36055 ft 475 kts 203°
2026-04-20 05:35 -10.81117 38.00874 36049 ft 475 kts 203°
2026-04-20 05:36 -10.87217 37.98285 36054 ft 475 kts 203°
2026-04-20 05:36 -10.93318 37.95693 36052 ft 475 kts 203°
2026-04-20 05:37 -10.99415 37.93103 36050 ft 475 kts 203°
2026-04-20 05:37 -11.04483 37.90949 36057 ft 475 kts 203°
2026-04-20 05:38 -11.10590 37.88352 36053 ft 476 kts 203°
2026-04-20 05:38 -11.16700 37.85753 36051 ft 476 kts 203°
2026-04-20 05:39 -11.22808 37.83153 36053 ft 476 kts 203°
2026-04-20 05:39 -11.28923 37.80549 36058 ft 476 kts 203°
2026-04-20 05:40 -11.35040 37.77942 36052 ft 477 kts 203°
2026-04-20 05:40 -11.41166 37.75332 36052 ft 477 kts 203°
2026-04-20 05:41 -11.47095 37.72804 36050 ft 477 kts 203°
2026-04-20 05:41 -11.53215 37.70192 36055 ft 477 kts 203°
2026-04-20 05:42 -11.59326 37.67583 36055 ft 477 kts 203°
2026-04-20 05:42 -11.65488 37.65070 36055 ft 477 kts 199°
2026-04-20 05:43 -11.71791 37.62921 36061 ft 478 kts 198°
2026-04-20 05:43 -11.78115 37.60806 36062 ft 478 kts 198°
2026-04-20 05:44 -11.84427 37.58673 36057 ft 478 kts 199°
2026-04-20 05:44 -11.90695 37.56538 36056 ft 478 kts 199°
2026-04-20 05:45 -11.97005 37.54383 36060 ft 478 kts 199°
2026-04-20 05:45 -12.03319 37.52226 36064 ft 478 kts 199°
2026-04-20 05:46 -12.09627 37.50071 36059 ft 478 kts 199°
2026-04-20 05:46 -12.15937 37.47914 36062 ft 478 kts 199°
2026-04-20 05:47 -12.22247 37.45757 36058 ft 478 kts 199°
2026-04-20 05:47 -12.28563 37.43596 36066 ft 478 kts 199°
2026-04-20 05:48 -12.34869 37.41438 36065 ft 478 kts 199°
2026-04-20 05:48 -12.41182 37.39276 36062 ft 478 kts 199°
2026-04-20 05:49 -12.47407 37.37143 36065 ft 478 kts 199°
2026-04-20 05:49 -12.53715 37.34981 36063 ft 478 kts 199°
2026-04-20 05:50 -12.59959 37.32839 36068 ft 478 kts 198°
2026-04-20 05:50 -12.66263 37.30676 36066 ft 478 kts 198°
2026-04-20 05:51 -12.72562 37.28513 36068 ft 478 kts 198°
2026-04-20 05:51 -12.78863 37.26348 36070 ft 477 kts 198°
2026-04-20 05:52 -12.85169 37.24195 36069 ft 477 kts 198°
2026-04-20 05:52 -12.91490 37.22101 36068 ft 477 kts 198°
2026-04-20 05:53 -12.97757 37.20035 36068 ft 477 kts 198°
2026-04-20 05:53 -13.04066 37.17946 36079 ft 477 kts 198°
2026-04-20 05:54 -13.10366 37.15853 36076 ft 477 kts 198°
2026-04-20 05:54 -13.16652 37.13762 36078 ft 477 kts 198°
2026-04-20 05:55 -13.22962 37.11662 36080 ft 477 kts 198°
2026-04-20 05:55 -13.29269 37.09563 36089 ft 477 kts 198°
2026-04-20 05:56 -13.35578 37.07462 36087 ft 477 kts 198°
2026-04-20 05:56 -13.41892 37.05358 36087 ft 477 kts 198°
2026-04-20 05:57 -13.48203 37.03254 36089 ft 477 kts 198°
2026-04-20 05:57 -13.54516 37.01148 36090 ft 477 kts 198°
2026-04-20 05:58 -13.60831 36.99040 36092 ft 477 kts 198°
2026-04-20 05:58 -13.67135 36.96935 36089 ft 477 kts 198°
2026-04-20 05:59 -13.73443 36.94827 36091 ft 476 kts 198°
2026-04-20 05:59 -13.79747 36.92719 36090 ft 476 kts 198°
2026-04-20 06:00 -13.86045 36.90612 36088 ft 476 kts 198°
2026-04-20 06:00 -13.92337 36.88505 36091 ft 475 kts 198°
2026-04-20 06:01 -13.98629 36.86398 36089 ft 475 kts 198°
2026-04-20 06:01 -14.04876 36.84310 36087 ft 475 kts 197°
2026-04-20 06:02 -14.11216 36.82225 36091 ft 475 kts 197°
2026-04-20 06:02 -14.17509 36.80159 36094 ft 475 kts 197°
2026-04-20 06:03 -14.23759 36.78103 36086 ft 475 kts 197°
2026-04-20 06:03 -14.30049 36.76029 36088 ft 474 kts 197°
2026-04-20 06:04 -14.36335 36.73955 36094 ft 474 kts 197°
2026-04-20 06:04 -14.42620 36.71879 36100 ft 474 kts 198°
2026-04-20 06:05 -14.48911 36.69801 36095 ft 475 kts 198°
2026-04-20 06:05 -14.55200 36.67722 36094 ft 475 kts 198°
2026-04-20 06:06 -14.61492 36.65641 36098 ft 475 kts 198°
2026-04-20 06:06 -14.67780 36.63560 36101 ft 475 kts 198°
2026-04-20 06:07 -14.74075 36.61475 36096 ft 475 kts 198°
2026-04-20 06:07 -14.80367 36.59391 36098 ft 475 kts 198°
2026-04-20 06:08 -14.86657 36.57305 36100 ft 475 kts 198°
2026-04-20 06:08 -14.92942 36.55219 36101 ft 474 kts 198°
2026-04-20 06:09 -14.99231 36.53132 36104 ft 474 kts 198°
2026-04-20 06:09 -15.05517 36.51044 36106 ft 474 kts 198°
2026-04-20 06:10 -15.11558 36.49036 36106 ft 474 kts 198°
2026-04-20 06:10 -15.17787 36.46964 36105 ft 473 kts 198°
2026-04-20 06:11 -15.24100 36.44864 36107 ft 473 kts 198°
2026-04-20 06:11 -15.30317 36.42794 36105 ft 472 kts 198°
2026-04-20 06:12 -15.36562 36.40713 36107 ft 472 kts 198°
2026-04-20 06:12 -15.42821 36.38625 36105 ft 472 kts 198°
2026-04-20 06:13 -15.49078 36.36538 36108 ft 473 kts 198°
2026-04-20 06:13 -15.55340 36.34448 36110 ft 473 kts 198°
2026-04-20 06:14 -15.61597 36.32357 36110 ft 473 kts 198°
2026-04-20 06:14 -15.67863 36.30263 36106 ft 473 kts 198°
2026-04-20 06:15 -15.74125 36.28168 36100 ft 473 kts 198°
2026-04-20 06:15 -15.80389 36.26071 36101 ft 473 kts 198°
2026-04-20 06:16 -15.86654 36.23973 36097 ft 473 kts 198°
2026-04-20 06:16 -15.92919 36.21873 36097 ft 473 kts 198°
2026-04-20 06:17 -15.99176 36.19774 36087 ft 473 kts 198°
2026-04-20 06:17 -16.05424 36.17646 36092 ft 472 kts 198°
2026-04-20 06:18 -16.11668 36.15501 36084 ft 472 kts 198°
2026-04-20 06:18 -16.17903 36.13359 36085 ft 472 kts 198°
2026-04-20 06:19 -16.24139 36.11220 36070 ft 472 kts 198°
2026-04-20 06:19 -16.30375 36.09080 36073 ft 472 kts 198°
2026-04-20 06:20 -16.36567 36.06954 36075 ft 472 kts 198°
2026-04-20 06:20 -16.42803 36.04811 36075 ft 472 kts 198°
2026-04-20 06:21 -16.49037 36.02667 36063 ft 472 kts 198°
2026-04-20 06:21 -16.55274 36.00522 36064 ft 472 kts 199°
2026-04-20 06:22 -16.61510 35.98374 36058 ft 472 kts 199°
2026-04-20 06:22 -16.67750 35.96224 36055 ft 472 kts 199°
2026-04-20 06:23 -16.73986 35.94074 36053 ft 472 kts 199°
2026-04-20 06:23 -16.80221 35.91922 36049 ft 472 kts 199°
2026-04-20 06:24 -16.86454 35.89770 36054 ft 472 kts 199°
2026-04-20 06:24 -16.92688 35.87616 36046 ft 472 kts 199°
2026-04-20 06:25 -16.98916 35.85463 36042 ft 471 kts 199°
2026-04-20 06:25 -17.05140 35.83310 36045 ft 471 kts 199°
2026-04-20 06:26 -17.11365 35.81154 36042 ft 471 kts 199°
2026-04-20 06:26 -17.17587 35.78998 36043 ft 471 kts 199°
2026-04-20 06:27 -17.22754 35.77206 36038 ft 471 kts 198°
2026-04-20 06:27 -17.28973 35.75049 36034 ft 471 kts 199°
2026-04-20 06:28 -17.35187 35.72891 36037 ft 470 kts 199°
2026-04-20 06:28 -17.41399 35.70732 36032 ft 470 kts 199°
2026-04-20 06:29 -17.47610 35.68572 36028 ft 470 kts 198°
2026-04-20 06:29 -17.53782 35.66425 36030 ft 470 kts 198°
2026-04-20 06:30 -17.59996 35.64261 36032 ft 471 kts 199°
2026-04-20 06:30 -17.66209 35.62095 36030 ft 471 kts 199°
2026-04-20 06:31 -17.72427 35.59926 36018 ft 471 kts 199°
2026-04-20 06:31 -17.78646 35.57754 36019 ft 471 kts 199°
2026-04-20 06:32 -17.84868 35.55580 36016 ft 471 kts 199°
2026-04-20 06:32 -17.91090 35.53404 36014 ft 471 kts 199°
2026-04-20 06:33 -17.97313 35.51226 36014 ft 471 kts 199°
2026-04-20 06:33 -18.03535 35.49047 36012 ft 471 kts 199°
2026-04-20 06:34 -18.09756 35.46867 36015 ft 471 kts 199°
2026-04-20 06:35 -18.19094 35.43591 36012 ft 472 kts 199°
2026-04-20 06:35 -18.25321 35.41404 36015 ft 472 kts 199°
2026-04-20 06:36 -18.31548 35.39216 36012 ft 472 kts 199°
2026-04-20 06:36 -18.37778 35.37025 36011 ft 472 kts 199°
2026-04-20 06:37 -18.44007 35.34832 36016 ft 472 kts 199°
2026-04-20 06:37 -18.50197 35.32652 36016 ft 472 kts 199°
2026-04-20 06:38 -18.56427 35.30455 36010 ft 472 kts 199°
2026-04-20 06:38 -18.62658 35.28259 36012 ft 472 kts 199°
2026-04-20 06:39 -18.68891 35.26065 36015 ft 472 kts 199°
2026-04-20 06:39 -18.75122 35.23870 36008 ft 472 kts 199°
2026-04-20 06:40 -18.81350 35.21674 36006 ft 472 kts 199°
2026-04-20 06:40 -18.87575 35.19476 36009 ft 471 kts 199°
2026-04-20 06:41 -18.93796 35.17278 36003 ft 471 kts 199°
2026-04-20 06:41 -19.00013 35.15079 36007 ft 471 kts 200°
2026-04-20 06:42 -19.06227 35.12881 36003 ft 471 kts 200°
2026-04-20 06:42 -19.12437 35.10681 36002 ft 471 kts 200°
2026-04-20 06:43 -19.18646 35.08480 35999 ft 471 kts 200°
2026-04-20 06:43 -19.24812 35.06293 36000 ft 470 kts 200°
2026-04-20 06:44 -19.31018 35.04090 35996 ft 470 kts 200°
2026-04-20 06:44 -19.37223 35.01885 35997 ft 470 kts 200°
2026-04-20 06:45 -19.43429 34.99678 35998 ft 470 kts 200°
2026-04-20 06:45 -19.49631 34.97471 35997 ft 470 kts 200°
2026-04-20 06:46 -19.55831 34.95263 35997 ft 470 kts 200°
2026-04-20 06:46 -19.62024 34.93055 35989 ft 470 kts 200°
2026-04-20 06:47 -19.68220 34.90845 35992 ft 470 kts 200°
2026-04-20 06:47 -19.74411 34.88634 35996 ft 469 kts 200°
2026-04-20 06:48 -19.80601 34.86419 35996 ft 469 kts 200°
2026-04-20 06:48 -19.86782 34.84176 36001 ft 469 kts 201°
2026-04-20 06:49 -19.92958 34.81924 35993 ft 469 kts 201°
2026-04-20 06:49 -19.99138 34.79673 35998 ft 469 kts 201°
2026-04-20 06:50 -20.05316 34.77422 35999 ft 469 kts 201°
2026-04-20 06:50 -20.11492 34.75171 36007 ft 469 kts 201°
2026-04-20 06:51 -20.17628 34.72933 36012 ft 469 kts 201°
2026-04-20 06:51 -20.23809 34.70676 36008 ft 469 kts 201°
2026-04-20 06:52 -20.29987 34.68417 36008 ft 469 kts 201°
2026-04-20 06:52 -20.36163 34.66159 36008 ft 469 kts 201°
2026-04-20 06:53 -20.42337 34.63899 36006 ft 469 kts 201°
2026-04-20 06:53 -20.48510 34.61637 36011 ft 469 kts 201°
2026-04-20 06:54 -20.54685 34.59373 36007 ft 469 kts 201°
2026-04-20 06:54 -20.60861 34.57106 36009 ft 469 kts 201°
2026-04-20 06:55 -20.67040 34.54836 36008 ft 469 kts 201°
2026-04-20 06:55 -20.73216 34.52565 36009 ft 470 kts 201°
2026-04-20 06:56 -20.79395 34.50293 36011 ft 470 kts 202°
2026-04-20 06:56 -20.85576 34.48014 36007 ft 470 kts 202°
2026-04-20 06:57 -20.91759 34.45735 36009 ft 470 kts 202°
2026-04-20 06:57 -20.97946 34.43454 36008 ft 471 kts 202°
2026-04-20 06:58 -21.04159 34.41232 36007 ft 471 kts 201°
2026-04-20 06:58 -21.10387 34.39032 36009 ft 472 kts 202°
2026-04-20 06:59 -21.16576 34.36837 36009 ft 472 kts 202°
2026-04-20 06:59 -21.22808 34.34617 36008 ft 472 kts 202°
2026-04-20 07:00 -21.29043 34.32392 36011 ft 472 kts 202°
2026-04-20 07:00 -21.35276 34.30165 36012 ft 472 kts 202°
2026-04-20 07:01 -21.41512 34.27936 36009 ft 472 kts 202°
2026-04-20 07:01 -21.47747 34.25705 36010 ft 472 kts 202°
2026-04-20 07:02 -21.53981 34.23473 36006 ft 472 kts 202°
2026-04-20 07:02 -21.60216 34.21238 36008 ft 472 kts 202°
2026-04-20 07:03 -21.66446 34.19003 36019 ft 472 kts 202°
2026-04-20 07:03 -21.72677 34.16765 36011 ft 472 kts 202°
2026-04-20 07:04 -21.78909 34.14525 36011 ft 472 kts 202°
2026-04-20 07:04 -21.85141 34.12283 36012 ft 472 kts 202°
2026-04-20 07:05 -21.91373 34.10039 36010 ft 472 kts 202°
2026-04-20 07:05 -21.97604 34.07794 36017 ft 472 kts 203°
2026-04-20 07:06 -22.03839 34.05544 36009 ft 472 kts 203°
2026-04-20 07:06 -22.10070 34.03294 36008 ft 472 kts 203°
2026-04-20 07:07 -22.16292 34.01041 36009 ft 472 kts 203°
2026-04-20 07:07 -22.22507 33.98761 36004 ft 471 kts 203°
2026-04-20 07:08 -22.28713 33.96476 36003 ft 471 kts 204°
2026-04-20 07:08 -22.34925 33.94190 36007 ft 471 kts 204°
2026-04-20 07:09 -22.41134 33.91905 36000 ft 472 kts 204°
2026-04-20 07:09 -22.47347 33.89616 35999 ft 471 kts 204°
2026-04-20 07:10 -22.53514 33.87341 35996 ft 471 kts 204°
2026-04-20 07:10 -22.59759 33.85028 36003 ft 471 kts 204°
2026-04-20 07:11 -22.65923 33.82741 35997 ft 472 kts 204°
2026-04-20 07:11 -22.72132 33.80436 35996 ft 472 kts 204°
2026-04-20 07:12 -22.78339 33.78131 35993 ft 472 kts 204°
2026-04-20 07:12 -22.84547 33.75822 36008 ft 472 kts 205°
2026-04-20 07:13 -22.90758 33.73510 35996 ft 472 kts 205°
2026-04-20 07:13 -22.96975 33.71194 35998 ft 472 kts 205°
2026-04-20 07:14 -23.03188 33.68878 35995 ft 472 kts 205°
2026-04-20 07:14 -23.09406 33.66556 36002 ft 472 kts 205°
2026-04-20 07:15 -23.15619 33.64234 35994 ft 472 kts 205°
2026-04-20 07:15 -23.21831 33.61911 35991 ft 472 kts 205°
2026-04-20 07:16 -23.28047 33.59583 35990 ft 472 kts 205°
2026-04-20 07:16 -23.34215 33.57158 35985 ft 471 kts 206°
2026-04-20 07:17 -23.40347 33.54638 35986 ft 471 kts 206°
2026-04-20 07:17 -23.45445 33.52559 36003 ft 471 kts 207°
2026-04-20 07:18 -23.51593 33.50066 35993 ft 471 kts 206°
2026-04-20 07:18 -23.57743 33.47582 35982 ft 471 kts 206°
2026-04-20 07:19 -23.63893 33.45105 35983 ft 471 kts 206°
2026-04-20 07:19 -23.70042 33.42625 35978 ft 471 kts 206°
2026-04-20 07:20 -23.76186 33.40142 35981 ft 471 kts 207°
2026-04-20 07:20 -23.82330 33.37655 35974 ft 471 kts 207°
2026-04-20 07:21 -23.88471 33.35168 35973 ft 471 kts 207°
2026-04-20 07:21 -23.94607 33.32680 35971 ft 470 kts 207°
2026-04-20 07:22 -24.00742 33.30190 35973 ft 470 kts 207°
2026-04-20 07:22 -24.06877 33.27697 35975 ft 471 kts 207°
2026-04-20 07:23 -24.13015 33.25200 35964 ft 471 kts 207°
2026-04-20 07:23 -24.19154 33.22701 35958 ft 471 kts 207°
2026-04-20 07:24 -24.25252 33.20215 35961 ft 471 kts 207°
2026-04-20 07:24 -24.31390 33.17712 35960 ft 471 kts 207°
2026-04-20 07:25 -24.37525 33.15206 35972 ft 470 kts 207°
2026-04-20 07:25 -24.43660 33.12698 35954 ft 470 kts 207°
2026-04-20 07:26 -24.49789 33.10189 35951 ft 470 kts 207°
2026-04-20 07:26 -24.55915 33.07679 35952 ft 470 kts 207°
2026-04-20 07:27 -24.62074 33.05251 35969 ft 472 kts 205°
2026-04-20 07:27 -24.68338 33.03060 35957 ft 472 kts 205°
2026-04-20 07:28 -24.74596 33.00855 35937 ft 472 kts 205°
2026-04-20 07:28 -24.80832 32.98611 35939 ft 472 kts 206°
2026-04-20 07:29 -24.87063 32.96375 35950 ft 472 kts 205°
2026-04-20 07:29 -24.93311 32.94150 35940 ft 472 kts 206°
2026-04-20 07:30 -24.99562 32.91920 35927 ft 472 kts 206°
2026-04-20 07:30 -25.05814 32.89686 35929 ft 472 kts 206°
2026-04-20 07:31 -25.12066 32.87447 35933 ft 472 kts 206°
2026-04-20 07:31 -25.18322 32.85205 35924 ft 473 kts 206°
2026-04-20 07:32 -25.24575 32.82961 35922 ft 473 kts 206°
2026-04-20 07:32 -25.30829 32.80709 35920 ft 473 kts 206°
2026-04-20 07:33 -25.37084 32.78453 35904 ft 473 kts 206°
2026-04-20 07:33 -25.43316 32.76203 35907 ft 472 kts 206°
2026-04-20 07:34 -25.49524 32.73960 35918 ft 472 kts 207°
2026-04-20 07:34 -25.55773 32.71699 35899 ft 473 kts 207°
2026-04-20 07:35 -25.65149 32.68303 35888 ft 472 kts 207°
2026-04-20 07:35 -25.71390 32.66039 35887 ft 472 kts 206°
2026-04-20 07:36 -25.77609 32.63780 35925 ft 472 kts 207°
2026-04-20 07:36 -25.83023 32.61811 35891 ft 473 kts 207°
2026-04-20 07:37 -25.89342 32.59875 35880 ft 483 kts 199°
2026-04-20 07:37 -25.95992 32.58727 35879 ft 485 kts 198°
2026-04-20 07:38 -26.02650 32.57629 35876 ft 484 kts 198°
2026-04-20 07:38 -26.09303 32.56494 35888 ft 484 kts 198°
2026-04-20 07:39 -26.15957 32.55330 35890 ft 484 kts 198°
2026-04-20 07:39 -26.22208 32.54231 35892 ft 484 kts 198°
2026-04-20 07:40 -26.28862 32.53062 35881 ft 484 kts 198°
2026-04-20 07:40 -26.35312 32.51930 35900 ft 485 kts 199°
2026-04-20 07:41 -26.41979 32.50757 35905 ft 485 kts 199°
2026-04-20 07:41 -26.48655 32.49582 35908 ft 486 kts 199°
2026-04-20 07:42 -26.55330 32.48406 35904 ft 486 kts 199°
2026-04-20 07:42 -26.61976 32.47234 35926 ft 486 kts 199°
2026-04-20 07:43 -26.68663 32.46052 35917 ft 486 kts 199°
2026-04-20 07:43 -26.75342 32.44871 35915 ft 486 kts 199°
2026-04-20 07:44 -26.82015 32.43689 35914 ft 486 kts 199°
2026-04-20 07:44 -26.88690 32.42508 35928 ft 486 kts 199°
2026-04-20 07:45 -26.95373 32.41334 35917 ft 486 kts 199°
2026-04-20 07:45 -27.02060 32.40160 35931 ft 486 kts 199°
2026-04-20 07:46 -27.08746 32.38984 35920 ft 486 kts 199°
2026-04-20 07:46 -27.15428 32.37807 35929 ft 486 kts 199°
2026-04-20 07:47 -27.21884 32.36667 35918 ft 486 kts 199°
2026-04-20 07:47 -27.27695 32.35641 35917 ft 486 kts 199°
2026-04-20 07:48 -27.33961 32.34532 35953 ft 486 kts 200°
2026-04-20 07:48 -27.40650 32.33347 35943 ft 487 kts 200°
2026-04-20 07:49 -27.47351 32.32158 35920 ft 488 kts 200°
2026-04-20 07:49 -27.53964 32.30984 35919 ft 488 kts 200°
2026-04-20 07:50 -27.55101 32.30782 35916 ft 488 kts 200°